| time (UTC) | temp C | wind direction | speed KPH | gust KPH | rain 1hr cm | rain 24hr cm | rain mn cm | humidity % | barometer mb |
| 20260507110040 | 11 | 0 | 0.0 | 0.0 | 0.00 | 0.46 | 0.18 | 90 | 1011.7 |
| 20260507104530 | 11 | 0 | 0.0 | 0.0 | 0.00 | 0.46 | 0.18 | 91 | 1011.5 |
| 20260507103038 | 11 | 0 | 0.0 | 0.0 | 0.03 | 0.46 | 0.18 | 91 | 1011.3 |
| 20260507101536 | 11 | 0 | 0.0 | 0.0 | 0.03 | 0.46 | 0.18 | 91 | 1011.3 |
| 20260507100032 | 11 | 0 | 0.0 | 0.0 | 0.03 | 0.46 | 0.18 | 91 | 1011.2 |
| 20260507094536 | 11 | 0 | 0.0 | 0.0 | 0.03 | 0.46 | 0.18 | 91 | 1011.4 |
| 20260507093030 | 12 | 0 | 0.0 | 0.0 | 0.00 | 0.43 | 0.15 | 91 | 1011.1 |
| 20260507091533 | 12 | 0 | 0.0 | 0.0 | 0.00 | 0.43 | 0.15 | 90 | 1011.3 |
| 20260507090029 | 12 | 0 | 0.0 | 0.0 | 0.03 | 0.43 | 0.15 | 90 | 1011.0 |
| 20260507084531 | 12 | 0 | 0.0 | 0.0 | 0.03 | 0.43 | 0.15 | 90 | 1010.9 |
| 20260507083032 | 12 | 0 | 0.0 | 0.0 | 0.03 | 0.43 | 0.15 | 90 | 1010.9 |
| 20260507081537 | 12 | 0 | 0.0 | 0.0 | 0.03 | 0.43 | 0.15 | 90 | 1010.4 |
| 20260507080031 | 12 | 0 | 0.0 | 0.0 | 0.00 | 0.41 | 0.13 | 90 | 1010.1 |
| 20260507074531 | 13 | 0 | 0.0 | 1.6 | 0.03 | 0.41 | 0.13 | 91 | 1010.0 |
| 20260507073031 | 13 | 0 | 0.0 | 0.0 | 0.03 | 0.41 | 0.13 | 91 | 1009.8 |
| 20260507071530 | 13 | 0 | 0.0 | 0.0 | 0.03 | 0.41 | 0.13 | 91 | 1009.7 |
| 20260507070041 | 13 | 0 | 0.0 | 0.0 | 0.03 | 0.38 | 0.10 | 91 | 1009.9 |
| 20260507064530 | 13 | 0 | 0.0 | 0.0 | 0.03 | 0.38 | 0.10 | 90 | 1009.7 |
| 20260507063035 | 13 | 0 | 0.0 | 4.8 | 0.05 | 0.38 | 0.10 | 90 | 1009.3 |
| 20260507061537 | 14 | 0 | 0.0 | 0.0 | 0.05 | 0.38 | 0.10 | 90 | 1009.2 |
| 20260507060032 | 15 | 0 | 0.0 | 0.0 | 0.05 | 0.36 | 0.08 | 90 | 1009.6 |
| 20260507054533 | 15 | 0 | 0.0 | 0.0 | 0.05 | 0.36 | 0.08 | 89 | 1009.6 |
| 20260507053031 | 15 | 0 | 0.0 | 8.0 | 0.05 | 0.33 | 0.05 | 89 | 1009.5 |
| 20260507051532 | 16 | 0 | 0.0 | 0.0 | 0.05 | 0.33 | 0.05 | 88 | 1009.6 |
| 20260507050032 | 16 | 0 | 0.0 | 0.0 | 0.03 | 0.30 | 0.03 | 86 | 1009.2 |
| 20260507044531 | 16 | 0 | 0.0 | 6.4 | 0.03 | 0.30 | 0.03 | 85 | 1009.9 |
| 20260507043030 | 16 | 0 | 0.0 | 0.0 | 0.00 | 0.28 | 0.00 | 84 | 1009.6 |
| 20260507041530 | 16 | 0 | 0.0 | 0.0 | 0.00 | 0.28 | 0.00 | 84 | 1009.5 |
| 20260507040033 | 17 | 0 | 0.0 | 1.6 | 0.00 | 0.28 | 0.00 | 85 | 1009.3 |
| 20260507034530 | 17 | 0 | 0.0 | 16.1 | 0.00 | 0.28 | 0.28 | 89 | 1009.4 |
| 20260507033043 | 18 | 0 | 0.0 | 0.0 | 0.00 | 0.28 | 0.28 | 89 | 1009.2 |
| 20260507031545 | 18 | 0 | 0.0 | 0.0 | 0.00 | 0.28 | 0.28 | 89 | 1009.0 |
| 20260507030033 | 17 | 0 | 0.0 | 0.0 | 0.00 | 0.28 | 0.28 | 90 | 1009.1 |
| 20260507024534 | 17 | 0 | 0.0 | 0.0 | 0.00 | 0.28 | 0.28 | 90 | 1008.8 |
| 20260507023029 | 17 | 0 | 0.0 | 0.0 | 0.00 | 0.28 | 0.28 | 89 | 1008.6 |
| 20260507021533 | 17 | 0 | 0.0 | 0.0 | 0.00 | 0.28 | 0.28 | 89 | 1008.3 |
| 20260507020034 | 17 | 0 | 0.0 | 0.0 | 0.00 | 0.28 | 0.28 | 88 | 1008.5 |
| 20260507014541 | 17 | 0 | 0.0 | 0.0 | 0.00 | 0.28 | 0.28 | 88 | 1008.5 |
| 20260507013038 | 18 | 0 | 0.0 | 0.0 | 0.00 | 0.28 | 0.28 | 87 | 1009.0 |
| 20260507011536 | 18 | 0 | 0.0 | 0.0 | 0.00 | 0.28 | 0.28 | 86 | 1009.2 |
| 20260507010040 | 18 | 0 | 0.0 | 0.0 | 0.00 | 0.28 | 0.28 | 85 | 1009.0 |
| 20260507004532 | 18 | 0 | 0.0 | 0.0 | 0.00 | 0.28 | 0.28 | 84 | 1008.6 |
| 20260507003031 | 19 | 0 | 0.0 | 0.0 | 0.00 | 0.28 | 0.28 | 83 | 1008.7 |
| 20260507001534 | 19 | 0 | 0.0 | 0.0 | 0.00 | 0.28 | 0.28 | 82 | 1008.6 |
| 20260507000030 | 20 | 0 | 0.0 | 0.0 | 0.00 | 0.28 | 0.28 | 81 | 1008.5 |
| 20260506234531 | 20 | 0 | 0.0 | 0.0 | 0.00 | 0.28 | 0.28 | 80 | 1008.3 |
| 20260506233030 | 20 | 0 | 0.0 | 0.0 | 0.00 | 0.28 | 0.28 | 80 | 1008.2 |
| 20260506231534 | 20 | 0 | 0.0 | 0.0 | 0.00 | 0.28 | 0.28 | 79 | 1008.0 |
| 20260506230032 | 20 | 0 | 0.0 | 3.2 | 0.00 | 0.28 | 0.28 | 78 | 1008.2 |
| 20260506224559 | 20 | 0 | 0.0 | 4.8 | 0.00 | 0.28 | 0.28 | 78 | 1007.8 |
| 20260506223028 | 20 | 0 | 0.0 | 1.6 | 0.00 | 0.28 | 0.28 | 77 | 1008.0 |
| 20260506221532 | 21 | 0 | 0.0 | 3.2 | 0.00 | 0.28 | 0.28 | 77 | 1008.1 |
| 20260506220032 | 21 | 0 | 0.0 | 0.0 | 0.00 | 0.28 | 0.28 | 77 | 1007.9 |
| 20260506214530 | 21 | 0 | 0.0 | 1.6 | 0.00 | 0.28 | 0.28 | 77 | 1008.2 |
| 20260506213032 | 21 | 0 | 0.0 | 9.7 | 0.00 | 0.28 | 0.28 | 77 | 1007.8 |
| 20260506211530 | 21 | 0 | 0.0 | 8.0 | 0.00 | 0.28 | 0.28 | 78 | 1007.7 |
| 20260506210034 | 20 | 0 | 0.0 | 8.0 | 0.00 | 0.28 | 0.28 | 77 | 1007.5 |
| 20260506204530 | 20 | 242 | 0.0 | 11.3 | 0.00 | 0.28 | 0.28 | 78 | 1007.4 |
| 20260506203038 | 20 | 0 | 0.0 | 6.4 | 0.00 | 0.28 | 0.28 | 80 | 1007.5 |
| 20260506201537 | 20 | 0 | 0.0 | 17.7 | 0.00 | 0.28 | 0.28 | 79 | 1007.6 |
| 20260506200037 | 20 | 0 | 0.0 | 8.0 | 0.00 | 0.28 | 0.28 | 79 | 1007.5 |
| 20260506194531 | 20 | 0 | 0.0 | 12.9 | 0.00 | 0.28 | 0.28 | 79 | 1007.6 |
| 20260506193030 | 20 | 0 | 1.6 | 14.5 | 0.00 | 0.28 | 0.28 | 80 | 1007.7 |
| 20260506191532 | 20 | 0 | 0.0 | 16.1 | 0.00 | 0.28 | 0.28 | 80 | 1007.8 |
| 20260506190038 | 20 | 0 | 0.0 | 12.9 | 0.00 | 0.28 | 0.28 | 79 | 1008.0 |
| 20260506184535 | 20 | 0 | 0.0 | 17.7 | 0.00 | 0.28 | 0.28 | 79 | 1008.0 |
| 20260506183032 | 20 | 0 | 0.0 | 19.3 | 0.00 | 0.28 | 0.28 | 80 | 1008.3 |
| 20260506181530 | 19 | 294 | 1.6 | 22.5 | 0.00 | 0.28 | 0.28 | 81 | 1008.7 |
| 20260506180030 | 18 | 0 | 1.6 | 22.5 | 0.03 | 0.28 | 0.28 | 83 | 1008.8 |
| 20260506174529 | 18 | 0 | 0.0 | 16.1 | 0.03 | 0.28 | 0.28 | 84 | 1008.8 |
| 20260506173040 | 18 | 0 | 0.0 | 25.7 | 0.03 | 0.28 | 0.28 | 85 | 1008.7 |
| 20260506171532 | 17 | 209 | 0.0 | 16.1 | 0.05 | 0.28 | 0.28 | 86 | 1008.9 |
| 20260506170036 | 17 | 0 | 3.2 | 20.9 | 0.03 | 0.25 | 0.25 | 87 | 1008.8 |
| 20260506164533 | 17 | 244 | 0.0 | 14.5 | 0.03 | 0.25 | 0.25 | 88 | 1009.0 |
| 20260506163036 | 17 | 209 | 0.0 | 14.5 | 0.05 | 0.25 | 0.25 | 89 | 1008.9 |
| 20260506161528 | 17 | 199 | 1.6 | 16.1 | 0.05 | 0.23 | 0.23 | 90 | 1008.8 |
| 20260506160028 | 17 | 0 | 0.0 | 17.7 | 0.08 | 0.23 | 0.23 | 90 | 1009.3 |
| 20260506154532 | 16 | 232 | 0.0 | 17.7 | 0.13 | 0.23 | 0.23 | 89 | 1009.2 |
| 20260506153030 | 16 | 0 | 0.0 | 17.7 | 0.15 | 0.20 | 0.20 | 88 | 1009.3 |
| 20260506151531 | 16 | 0 | 0.0 | 6.4 | 0.18 | 0.18 | 0.18 | 88 | 1010.0 |
| 20260506150030 | 16 | 0 | 0.0 | 6.4 | 0.15 | 0.15 | 0.15 | 87 | 1010.0 |
| 20260506144534 | 16 | 0 | 0.0 | 4.8 | 0.10 | 0.10 | 0.10 | 85 | 1010.2 |
| 20260506143033 | 17 | 0 | 0.0 | 9.7 | 0.03 | 0.03 | 0.03 | 83 | 1010.1 |
| 20260506141533 | 17 | 0 | 0.0 | 1.6 | 0.00 | 0.00 | 0.00 | 82 | 1010.0 |
| 20260506140032 | 17 | 0 | 1.6 | 20.9 | 0.00 | 0.00 | 0.00 | 78 | 1010.2 |
| 20260506134528 | 18 | 0 | 0.0 | 8.0 | 0.00 | 0.00 | 0.00 | 75 | 1010.3 |
| 20260506133028 | 18 | 0 | 0.0 | 9.7 | 0.00 | 0.00 | 0.00 | 75 | 1010.3 |
| 20260506131544 | 18 | 0 | 0.0 | 3.2 | 0.00 | 0.00 | 0.00 | 74 | 1010.0 |
| 20260506130037 | 18 | 0 | 0.0 | 6.4 | 0.00 | 0.00 | 0.00 | 74 | 1009.8 |
| 20260506124529 | 18 | 142 | 0.0 | 12.9 | 0.00 | 0.00 | 0.00 | 74 | 1009.8 |
| 20260506123031 | 18 | 0 | 0.0 | 3.2 | 0.00 | 0.00 | 0.00 | 74 | 1010.0 |
| 20260506121530 | 18 | 0 | 1.6 | 17.7 | 0.00 | 0.00 | 0.00 | 74 | 1010.0 |
| 20260506120033 | 18 | 0 | 0.0 | 17.7 | 0.00 | 0.00 | 0.00 | 74 | 1010.0 |
| 20260506114534 | 18 | 0 | 0.0 | 22.5 | 0.00 | 0.00 | 0.00 | 74 | 1009.9 |
| 20260506113030 | 18 | 0 | 0.0 | 24.1 | 0.00 | 0.00 | 0.00 | 75 | 1009.8 |
| 20260506111531 | 18 | 0 | 0.0 | 22.5 | 0.00 | 0.00 | 0.00 | 76 | 1009.7 |